sat.trackr.live / text

‹ back to catalog

STARLINK-6262

NORAD 57091 · 2023-088AV

PAYLOAD ACTIVE UNKNOWN

§ Identity

Operator
Country
US
Launch date
2023-06-22
Launch site
AFWTR
Launch vehicle
Mass (kg)
RCS (m²)

Purposes: comms

External: N2YO · Heavens-Above · Gunter

§ Orbital elements

Epoch: 2026-09-19T22:59:40.992576Z

Period
94.27 min
Inclination
43.0032°
Eccentricity
0.0001582
Mean motion
15.27578312 rev/d
Perigee alt
482.0 km
Apogee alt
484.1 km
Semi-major
6,861.2 km
B*
1.9356e-5
RAAN
78.7850°
Arg perigee
267.3799°
Mean anomaly
92.6872°
Rev number
18,021

§ Raw data

STARLINK-62621 57091U 23088AV  26262.95811334  .00000270  00000+0  19356-4 0  99912 57091  43.0032  78.7850 0001582 267.3799  92.6872 15.27578312180217

JSON: /api/v1/satellites/57091 · /tle

For live sub-satellite position, see the globe view (requires WebGL).

§ Visibility from observer

Set your observer location to see the next 7 days of passes ≥ 10°. The values pass through the URL so the page stays shareable.

No JS? Fill the form by hand. The geolocation button needs JavaScript.